Regional Weather Roundup
Issued by NWS

Home | Current Version | Previous Version | Text Only | Print | Product List | Glossary Off
Versions: 1 2 3 4 5 6 7 8 9 10 11 12 13 14 15 16 17 18 19 20 21 22 23 24 25 26 27 28 29 30 31 32 33 34 35 36 37 38 39 40 41 42 43 44 45 46 47 48 49 50

000
ASUS43 KIND 211059
RWRIN

WEATHER ROUNDUP FOR INDIANA
NATIONAL WEATHER SERVICE INDIANAPOLIS IN
600 AM EST TUE FEB 21 2017

NOTE: "FAIR" INDICATES FEW OR NO CLOUDS BELOW 12,000 FEET WITH NO
SIGNIFICANT WEATHER AND/OR OBSTRUCTIONS TO VISIBILITY.

* - STATION DOES NOT REPORT WEATHER SUCH AS PRECIPITATION OR FOG.

+ - STATION NOT QUALITY CONTROLLED BY THE NATIONAL WEATHER SERVICE.
    USE DATA WITH CAUTION...ESPECIALLY DEWPOINT AND RELATIVE
    HUMIDITY OBSERVATIONS.

INZ001>003-010>013-019-020-211200-
NORTHWEST INDIANA

CITY           SKY/WX    TMP DP  RH WIND       PRES   REMARKS
GARY /AIRPORT/ LGT RAIN  57  46  67 SW7       29.94R
KNOX *+        CLOUDY    54  28  37 S7        29.94F

$$

LMZ046-743>745-211200-
SOUTHERN LAKE MICHIGAN

STATION/POSITION TIME  TEMP    WIND        PRES    WAVE
                       AIR SEA DIR/SP/G            HT
                 (UTC) (F)     (DEG/KT/KT) (MB)    (FT)
BURNS HARBOR     1040   56     190/ 10/ 13 1014.6R
MICHIGAN CITY    1030   56     170/ 11/ 12   N/A

$$

INZ004-005-014>016-021>024-211200-
NORTH CENTRAL INDIANA

CITY           SKY/WX    TMP DP  RH WIND       PRES   REMARKS
GOSHEN         CLOUDY    53  41  63 S7        29.94F
SOUTH BEND     CLOUDY    53  45  74 SW5       29.95S
WARSAW +       CLOUDY    52  41  66 S3        29.95S

$$

INZ006>009-017-018-025>027-211200-
NORTHEAST INDIANA

CITY           SKY/WX    TMP DP  RH WIND       PRES   REMARKS
ANGOLA *+      PTCLDY    43  39  87 S5        29.97S
FORT WAYNE     CLOUDY    46  39  76 SE5       29.97F
KENDALLVILLE + CLOUDY    46  40  78 S6        29.97R

$$

INZ028-029-035-036-043>045-051>053-211200-
WEST CENTRAL INDIANA

CITY           SKY/WX    TMP DP  RH WIND       PRES   REMARKS
LAFAYETTE      CLOUDY    55  47  74 CALM      29.95R
TERRE HAUTE    CLOUDY    51  45  79 CALM      29.96S

$$

INZ030>032-037>040-046>048-054>057-064-065-211200-
CENTRAL INDIANA

CITY           SKY/WX    TMP DP  RH WIND       PRES   REMARKS
FRANKFORT +    CLOUDY    55  48  75 S5        29.98R
GREENWOOD *+   CLOUDY    52  46  79 S5        29.99S
INDIANAPOLIS   CLOUDY    52  44  74 SE3       29.98R
-EAGLE CREEK   MOCLDY    52  44  74 CALM      29.98R
KOKOMO +       CLOUDY    51  45  79 S9        29.98R
MT COMFORT *+  CLOUDY    52  43  71 S6        29.99S
SHELBYVILLE    CLOUDY    51  42  71 S7        29.98S

$$

INZ033-034-041-042-049-050-058-059-211200-
EAST CENTRAL INDIANA

CITY           SKY/WX    TMP DP  RH WIND       PRES   REMARKS
MUNCIE         PTCLDY    54  41  61 S6        29.99R

$$

INZ060-061-067>069-081>083-085>088-211200-
SOUTHWEST INDIANA

CITY           SKY/WX    TMP DP  RH WIND       PRES   REMARKS
EVANSVILLE     CLOUDY    53  46  77 CALM      29.97R
HUNTINGBURG *+ CLOUDY    57  45  62 SE6       29.98R

$$

INZ062-063-066-070>080-084-089>092-211200-
SOUTH CENTRAL AND SOUTHEAST INDIANA

CITY           SKY/WX    TMP DP  RH WIND       PRES   REMARKS
BLOOMINGTON    MOCLDY    53  43  68 SE6       29.97S
MADISON *+     PTCLDY    50  41  71 CALM      30.02F
SEYMOUR +      MOCLDY    46  43  87 SE7       30.00

$$




USA.gov is the U.S. government's official web portal to all federal, state and local government web resources and services.